Temp
2 2 2 4 5 7 8 8 8 8 8 8 8 7 7 6 5 4 4 3 3 4 4 4 4 4 3
0 2 2 2 3 3 4 6 6 6 6 7 6 6 6 5 4 3 2 2 2 3 3 3 3 3 3
-0 0 1 1 2 2 2 3 4 4 3 3 4 4 4 3 2 2 1 1 1 2 2 2 2 2 2
-2 -2 -1 -0 1 2 2 1 1 1 1 1 1 1 2 1 1 1 1 0 1 0 0 0 0 0 1
-3 -3 -3 -3 -2 -2 -0 0 -0 -0 -0 -0 -1 -1 0 1 0 0 -0 -0 -0 -0 -0 -0 -0 -0 -0
-4 -4 -4 -3 -3 -3 -3 -4 -3 -2 -2 -2 -2 -2 -1 -0 -0 -0 -1 -1 -1 -1 -1 -1 -1 -1 -1
-4 -4 -4 -4 -4 -4 -4 -4 -4 -5 -5 -5 -4 -3 -2 -2 -1 -1 -1 -1 -1 -1 -1 -1 -1 -1 -1
-4 -4 -4 -4 -4 -4 -4 -5 -5 -5 -5 -5 -4 -3 -2 -2 -2 -2 -1 -1 -2 -2 -1 -1 -2 -2 -2
-5 -5 -5 -5 -5 -5 -5 -6 -6 -6 -6 -6 -4 -3 -2 -2 -3 -3 -2 -2 -2 -2 -2 -2 -2 -2 -2
-5 -5 -5 -5 -5 -5 -6 -6 -6 -6 -5 -6 -4 -3 -3 -3 -2 -2 -3 -3 -2 -2 -2 -2 -2 -2 -2
-6 -6 -6 -5 -5 -5 -5 -5 -6 -6 -5 -6 -5 -5 -4 -5 -4 -3 -3 -2 -3 -3 -3 -3 -3 -3 -3
-7 -7 -7 -7 -6 -6 -6 -6 -6 -5 -5 -5 -6 -5 -5 -5 -5 -5 -4 -4 -4 -4 -4 -4 -5 -5 -4
-9 -8 -8 -7 -7 -7 -6 -6 -6 -6 -6 -5 -5 -5 -6 -5 -5 -5 -5 -5 -5 -5 -6 -6 -6 -6 -6
-10 -9 -9 -9 -8 -8 -8 -7 -7 -7 -6 -6 -6 -6 -6 -6 -6 -7 -7 -6 -6 -7 -7 -7 -7 -6 -6
-11 -10 -10 -9 -9 -9 -9 -9 -8 -7 -7 -7 -7 -7 -7 -7 -7 -7 -7 -7 -7 -7 -7 -7 -7 -7 -7
-11 -11 -11 -10 -10 -10 -10 -9 -9 -9 -9 -9 -9 -9 -9 -8 -8 -8 -8 -8 -8 -8 -8 -8 -8 -8 -9
-12 -12 -12 -12 -11 -11 -11 -10 -10 -10 -10 -10 -10 -10 -9 -9 -9 -9 -9 -9 -9 -9 -9 -9 -9 -9 -9
Height
827 829 833 832 837 840 844 849 856 856 856 863 868 873 876 884 891 894 895 898 902 906 910 910 911 914 917
826 828 834 837 837 840 843 847 852 857 858 860 868 871 876 881 886 891 895 896 901 904 907 908 910 910 916
821 826 831 838 839 842 848 847 851 856 862 862 867 871 874 880 886 889 893 894 897 899 902 906 908 909 913
824 828 831 837 839 842 848 849 854 856 860 864 867 871 874 880 884 888 893 894 894 897 896 901 903 905 908
827 832 835 838 841 842 845 848 854 857 862 865 867 869 877 883 885 887 890 891 892 894 895 897 899 902 906
830 833 835 838 841 844 848 850 854 854 858 863 866 869 875 880 884 885 887 889 890 892 893 894 898 899 903
830 832 834 837 839 842 847 851 854 856 857 861 866 869 872 875 878 882 885 887 889 890 890 890 894 897 898
831 834 835 839 839 842 845 850 853 855 858 863 866 868 869 872 875 880 882 883 884 886 887 887 889 893 894
834 837 838 838 840 842 845 850 852 855 857 859 863 866 868 869 870 875 878 880 882 882 885 886 885 887 889
837 837 837 841 841 842 845 849 850 853 855 861 862 863 864 864 867 869 871 874 877 879 880 881 881 882 883
837 838 839 841 842 843 845 846 848 851 854 857 858 860 860 861 861 864 867 869 871 872 873 874 876 877 877
838 838 839 840 842 843 845 845 847 850 851 853 855 858 858 858 859 860 862 864 865 867 867 868 869 871 871
839 840 839 840 841 842 844 844 844 847 849 850 850 852 853 853 853 855 857 857 859 859 860 861 862 863 863
838 839 839 841 841 842 843 843 842 843 846 847 847 848 849 849 850 850 852 853 854 854 855 855 855 855 856
839 839 841 841 843 843 843 843 842 843 844 843 844 845 845 845 847 847 848 848 849 850 851 850 849 849 849
840 841 841 841 842 841 842 843 841 843 842 842 843 842 841 842 843 843 844 844 844 844 845 844 842 844 843
838 839 839 840 840 840 841 840 841 841 842 842 842 842 841 840 841 842 841 840 840 840 839 839 838 838 837
Wind_Speed
6 2 11 16 18 24 30 30 29 30 36 36 35 34 32 27 23 19 18 16 14 14 14 14 14 12 11
8 8 6 9 8 12 16 23 24 26 33 33 32 31 29 28 24 20 18 16 15 15 14 13 14 13 13
6 8 8 12 12 9 8 15 21 20 15 20 24 23 22 20 20 18 18 17 17 17 15 13 12 12 12
8 6 5 10 15 17 14 10 11 17 17 15 14 13 14 16 16 18 18 17 16 16 16 16 14 13 12
7 4 3 3 7 11 16 20 20 17 14 11 10 12 12 14 18 20 19 17 17 16 14 14 14 13 13
5 4 4 5 6 8 11 8 4 18 18 17 15 15 18 20 19 18 18 17 17 16 15 13 13 14 14
8 5 3 4 6 8 11 10 3 4 13 10 17 22 24 24 24 21 19 18 17 16 15 14 14 14 13
8 5 3 2 4 7 10 11 11 10 9 6 16 20 22 26 25 20 19 20 18 16 15 14 14 14 13
11 7 6 4 4 6 7 9 4 7 12 11 13 14 22 25 27 25 21 19 18 16 16 15 14 15 15
3 4 4 4 1 4 7 9 5 3 12 13 13 12 7 19 23 24 23 20 19 18 17 17 16 17 18
5 3 3 2 6 4 8 12 11 8 5 17 14 15 10 3 14 19 21 23 24 23 19 17 17 17 17
11 9 6 5 5 6 6 13 14 15 13 15 11 18 16 10 10 14 16 17 19 18 16 15 14 16 17
11 9 8 8 6 6 7 8 10 10 10 17 21 21 20 17 11 17 17 22 23 22 20 18 21 23 25
6 8 8 9 8 5 6 7 7 9 12 13 13 17 16 18 14 9 13 8 11 15 18 19 20 23 25
6 5 5 6 5 6 5 6 7 8 9 10 12 15 18 18 14 16 15 16 17 16 19 19 22 24 26
4 4 3 5 8 8 7 6 6 7 6 6 5 6 8 12 17 12 12 15 15 17 19 20 20 19 18
7 6 5 6 7 8 9 8 10 10 11 11 11 9 10 7 11 10 11 9 9 9 10 13 15 15 14
Wind_Direction
179 44 205 178 181 180 185 188 197 192 179 180 180 181 181 181 182 179 184 183 183 184 189 182 178 180 184
161 187 204 219 183 168 164 166 165 176 180 180 184 186 189 190 190 185 187 185 187 189 192 191 192 191 203
130 169 188 207 205 193 178 145 144 149 152 161 181 188 194 193 190 191 196 192 191 190 191 198 199 201 208
101 126 165 196 205 203 209 185 161 150 150 151 157 165 177 186 194 198 201 199 196 198 196 202 204 206 211
103 111 140 177 207 204 202 204 207 202 200 191 166 168 189 203 206 208 208 207 204 205 207 209 215 218 221
113 128 159 189 205 210 205 192 209 216 215 219 221 215 217 218 221 221 216 217 213 211 210 217 225 227 228
112 110 142 202 202 206 209 208 189 199 209 224 227 225 221 219 219 221 219 219 217 219 219 221 228 231 233
79 93 128 168 185 219 219 220 229 234 208 239 233 236 237 228 227 225 220 216 219 231 230 225 226 236 237
74 73 55 60 149 160 191 182 176 224 213 218 237 238 235 231 230 226 226 227 231 229 228 232 233 237 245
117 114 97 118 148 198 199 193 184 194 222 212 226 207 217 233 229 225 223 225 233 233 231 236 239 242 247
81 72 61 195 194 219 228 222 204 223 241 211 212 214 220 215 229 225 224 226 226 228 230 235 240 244 255
56 48 34 7 341 301 247 226 228 241 236 218 221 222 226 231 234 234 227 229 231 229 228 241 248 255 259
51 37 13 358 334 311 300 286 273 264 254 244 236 234 225 226 227 223 217 231 233 241 247 250 260 267 270
11 8 8 15 13 335 309 301 290 281 267 245 244 247 239 237 230 225 219 212 231 248 260 261 259 258 261
23 358 336 336 348 342 341 349 289 282 276 272 266 260 257 255 251 248 241 243 250 252 256 257 260 262 264
8 7 340 317 307 312 310 316 306 307 319 331 325 318 294 267 254 257 250 253 255 259 261 258 262 262 263
0 345 314 303 301 298 299 299 289 285 283 284 284 281 281 273 278 261 265 256 261 263 257 257 268 271 274